Ely, MN

5:07 AM CDT on August 29, 2016 (GMT -0500)
Ely Municipal

Weather History for KELO - May, 2015

Change the Weather History Date:

Monday, May 11, 2015

  Actual Average Record
Temperature  
Mean Temperature 38 °F -  
Max Temperature 42 °F 58 °F 82 °F (2011)
Min Temperature 33 °F 35 °F 28 °F (2002)
Degree Days  
Heating Degree Days 28    
Moisture  
Dew Point 37 °F    
Average Humidity 94    
Maximum Humidity 100    
Minimum Humidity 87    
Precipitation  
Precipitation 0.87 in - - ()
Sea Level Pressure  
Sea Level Pressure 29.80 in    
Wind  
Wind Speed 8 mph (ENE)    
Max Wind Speed 14 mph    
Max Gust Speed 20 mph    
Visibility 6 miles    
Events Rain , Thunderstorm    
Averages and records for this station are not official NWS values.
T = Trace of Precipitation, MM = Missing Value Source: NWS Daily Summary

Daily Weather History Graph

Daily Weather History Graph

Search for Another Location

Airport or City:

Trip Planner

Search our weather history database for the weather conditions in past years. The results will help you decide how hot, cold, wet, or windy it might be!

Date:

Astronomy

May. 11, 2015 Rise Set
Actual Time 5:34 AM CDT 8:33 PM CDT
Civil Twilight 4:58 AM CDT 9:09 PM CDT
Nautical Twilight 4:12 AM CDT 9:56 PM CDT
Astronomical Twilight 3:15 AM CDT 10:53 PM CDT
Moon 2:03 AM CDT (5/11) 12:48 PM CDT (5/11)
Length of Visible Light 16h 11m
Length of Day
14h 58m
Waning Gibbous, 47% of the Moon is Illuminated
May 11
Waning Gibbous
May 17
New
May 25
First Quarter
Jun 2
Full
Jun 9
Last Quarter

Hourly Weather History & Observations

Time (CDT) Temp. Windchill Dew Point Humidity Pressure Visibility Wind Dir Wind Speed Gust Speed Precip Events Conditions
12:13 AM 37.4 °F 32.8 °F 35.6 °F 93% 30.02 in 4.0 mi East 5.8 mph - 0.03 in Rain Rain
12:33 AM 37.4 °F 31.4 °F 35.6 °F 93% 30.04 in 3.0 mi East 8.1 mph - 0.09 in Rain , Thunderstorm Thunderstorms and Rain
12:53 AM 37.4 °F 30.3 °F 35.6 °F 93% 30.01 in 4.0 mi ENE 10.4 mph - 0.16 in Rain Rain
1:13 AM 37.4 °F 30.8 °F 35.6 °F 93% 29.97 in 2.5 mi ENE 9.2 mph - 0.10 in Rain Heavy Rain
1:32 AM 37.4 °F 32.1 °F 35.6 °F 93% 29.95 in 5.0 mi ENE 6.9 mph - 0.18 in Rain Rain
1:53 AM 37.4 °F 28.9 °F 35.6 °F 93% 29.94 in 7.0 mi East 13.8 mph 17.3 mph 0.25 in Rain Rain
2:13 AM 37.4 °F 29.3 °F 35.6 °F 93% 29.94 in 7.0 mi East 12.7 mph - 0.04 in Rain Rain
2:32 AM 37.4 °F 30.8 °F 35.6 °F 93% 29.93 in 7.0 mi East 9.2 mph 19.6 mph 0.07 in Rain Rain
2:53 AM 37.4 °F 31.4 °F 35.6 °F 93% 29.94 in 2.5 mi East 8.1 mph - 0.15 in Rain Heavy Rain
3:13 AM 37.4 °F 32.1 °F 37.4 °F 100% 29.92 in 4.0 mi ENE 6.9 mph - 0.08 in Rain Rain
3:33 AM 37.4 °F 32.8 °F 35.6 °F 93% 29.92 in 7.0 mi ENE 5.8 mph - 0.14 in Rain Rain
3:53 AM 37.4 °F 32.8 °F 35.6 °F 93% 29.92 in 5.0 mi NE 5.8 mph - N/A Rain Rain
4:13 AM 37.4 °F 32.1 °F 35.6 °F 93% 29.90 in 7.0 mi NE 6.9 mph - 0.03 in Rain Rain
4:33 AM 37.4 °F 31.4 °F 35.6 °F 93% 29.90 in 7.0 mi ENE 8.1 mph - 0.06 in Rain Rain
4:53 AM 37.4 °F 29.8 °F 35.6 °F 93% 29.87 in 10.0 mi NE 11.5 mph 17.3 mph 0.06 in   Overcast
5:13 AM 37.4 °F 30.8 °F 35.6 °F 93% 29.84 in 10.0 mi ENE 9.2 mph 18.4 mph N/A   Light Drizzle
5:33 AM 37.4 °F 32.1 °F 35.6 °F 93% 29.86 in 10.0 mi NE 6.9 mph 17.3 mph N/A   Overcast
5:53 AM 37.4 °F 30.8 °F 35.6 °F 93% 29.84 in 10.0 mi ENE 9.2 mph 17.3 mph N/A   Overcast
6:13 AM 37.4 °F 32.1 °F 35.6 °F 93% 29.83 in 10.0 mi ENE 6.9 mph - N/A   Overcast
6:32 AM 37.4 °F 30.3 °F 35.6 °F 93% 29.82 in 10.0 mi ENE 10.4 mph 18.4 mph N/A   Overcast
6:53 AM 37.4 °F 32.1 °F 35.6 °F 93% 29.82 in 10.0 mi ENE 6.9 mph - N/A   Overcast
7:13 AM 37.4 °F 30.8 °F 35.6 °F 93% 29.81 in 10.0 mi ENE 9.2 mph - N/A   Overcast
7:33 AM 37.4 °F 33.8 °F 35.6 °F 93% 29.81 in 10.0 mi ENE 4.6 mph - N/A   Overcast
7:53 AM 37.4 °F 32.1 °F 37.4 °F 100% 29.80 in 10.0 mi NE 6.9 mph - N/A   Overcast
8:13 AM 37.4 °F 32.8 °F 37.4 °F 100% 29.80 in 10.0 mi ENE 5.8 mph - N/A   Overcast
8:28 AM 39.2 °F 33.0 °F 37.4 °F 93% 29.80 in 10.0 mi NE 9.2 mph - N/A   Overcast
8:53 AM 39.2 °F 34.2 °F 37.4 °F 93% 29.79 in 10.0 mi ENE 6.9 mph - N/A   Overcast
9:13 AM 39.2 °F 33.0 °F 37.4 °F 93% 29.79 in 4.0 mi ENE 9.2 mph - N/A   Drizzle
9:33 AM 39.2 °F 34.2 °F 37.4 °F 93% 29.79 in 5.0 mi ENE 6.9 mph - N/A Rain Light Rain
9:52 AM 39.2 °F 33.6 °F 37.4 °F 93% 29.78 in 2.5 mi NE 8.1 mph - N/A   Light Drizzle
10:13 AM 41.0 °F 36.4 °F 39.2 °F 93% 29.78 in 3.0 mi ENE 6.9 mph - N/A   Light Drizzle
10:32 AM 42.8 °F 39.3 °F 39.2 °F 87% 29.77 in 2.5 mi ENE 5.8 mph - N/A   Light Drizzle
10:53 AM 42.8 °F 37.5 °F 41.0 °F 93% 29.76 in 4.0 mi East 9.2 mph - N/A   Overcast
11:13 AM 42.8 °F 38.6 °F 41.0 °F 93% 29.76 in 4.0 mi East 6.9 mph - N/A   Light Drizzle
11:33 AM 42.8 °F 37.0 °F 41.0 °F 93% 29.75 in 5.0 mi East 10.4 mph - N/A   Overcast
11:53 AM 42.8 °F 37.5 °F 41.0 °F 93% 29.74 in 4.0 mi East 9.2 mph - N/A Rain Light Rain
12:13 PM 42.8 °F 38.0 °F 41.0 °F 93% 29.74 in 2.5 mi East 8.1 mph - N/A   Overcast
12:33 PM 42.8 °F 37.5 °F 41.0 °F 93% 29.74 in 3.0 mi East 9.2 mph - N/A   Drizzle
12:53 PM 42.8 °F 38.6 °F 41.0 °F 93% 29.72 in 3.0 mi East 6.9 mph - N/A   Drizzle
1:13 PM 42.8 °F 38.6 °F 41.0 °F 93% 29.71 in 5.0 mi East 6.9 mph - 0.01 in   Drizzle
1:33 PM 42.8 °F 38.6 °F 41.0 °F 93% 29.70 in 3.0 mi ENE 6.9 mph - 0.01 in   Overcast
1:53 PM 42.8 °F 37.5 °F 39.2 °F 87% 29.71 in 3.0 mi ENE 9.2 mph 16.1 mph 0.01 in   Light Drizzle
2:13 PM 42.8 °F 38.0 °F 41.0 °F 93% 29.71 in 4.0 mi NE 8.1 mph - N/A   Overcast
2:33 PM 42.8 °F 37.0 °F 41.0 °F 93% 29.71 in 2.0 mi NE 10.4 mph 16.1 mph N/A   Drizzle
2:53 PM 41.0 °F 33.9 °F 39.2 °F 93% 29.71 in 2.5 mi NE 12.7 mph 17.3 mph 0.01 in Rain Rain
3:13 PM 41.0 °F 35.8 °F 39.2 °F 93% 29.71 in 4.0 mi ENE 8.1 mph 16.1 mph N/A   Light Drizzle
3:33 PM 41.0 °F 35.8 °F 39.2 °F 93% 29.71 in 3.0 mi NE 8.1 mph - N/A Rain Light Rain
3:53 PM 41.0 °F 35.2 °F 39.2 °F 93% 29.71 in 4.0 mi ENE 9.2 mph - N/A   Light Drizzle
4:13 PM 39.2 °F 32.5 °F 39.2 °F 100% 29.71 in 2.5 mi NE 10.4 mph 17.3 mph N/A Rain Light Rain
4:33 PM 39.2 °F 33.0 °F 39.2 °F 100% 29.71 in 3.0 mi ENE 9.2 mph - N/A   Drizzle
4:53 PM 39.2 °F 34.2 °F 37.4 °F 93% 29.72 in 3.0 mi NE 6.9 mph 17.3 mph N/A   Overcast
5:13 PM 39.2 °F 31.6 °F 37.4 °F 93% 29.72 in 3.0 mi NE 12.7 mph 18.4 mph N/A   Overcast
5:33 PM 39.2 °F 34.2 °F 37.4 °F 93% 29.73 in 10.0 mi ENE 6.9 mph - N/A   Overcast
5:53 PM 39.2 °F 33.6 °F 37.4 °F 93% 29.73 in 10.0 mi ENE 8.1 mph - N/A   Overcast
6:13 PM 39.2 °F 32.5 °F 37.4 °F 93% 29.73 in 7.0 mi NE 10.4 mph - N/A   Drizzle
6:33 PM 39.2 °F 35.0 °F 37.4 °F 93% 29.73 in 4.0 mi ENE 5.8 mph - N/A   Drizzle
6:52 PM 39.2 °F 35.0 °F 37.4 °F 93% 29.73 in 4.0 mi ENE 5.8 mph - N/A   Drizzle
7:13 PM 37.4 °F 32.8 °F 37.4 °F 100% 29.74 in 5.0 mi NE 5.8 mph - 0.01 in   Drizzle
7:33 PM 37.4 °F 32.1 °F 35.6 °F 93% 29.74 in 3.0 mi NE 6.9 mph - 0.01 in Rain Rain
7:53 PM 37.4 °F 30.3 °F 35.6 °F 93% 29.75 in 3.0 mi NE 10.4 mph 16.1 mph 0.01 in   Drizzle
8:12 PM 35.6 °F 28.6 °F 35.6 °F 100% 29.75 in 7.0 mi NNE 9.2 mph 16.1 mph N/A Rain Rain
8:33 PM 35.6 °F 28.6 °F 33.8 °F 93% 29.75 in 4.0 mi NE 9.2 mph - 0.02 in Rain Rain
8:52 PM 35.6 °F 29.2 °F 33.8 °F 93% 29.75 in 7.0 mi NNE 8.1 mph - 0.04 in Rain Light Rain
9:13 PM 35.6 °F 28.6 °F 33.8 °F 93% 29.76 in 7.0 mi NE 9.2 mph - 0.01 in Rain Light Rain
9:33 PM 35.6 °F 30.7 °F 33.8 °F 93% 29.76 in 7.0 mi NE 5.8 mph - 0.01 in Rain Light Rain
9:52 PM 35.6 °F 31.7 °F 33.8 °F 93% 29.77 in 5.0 mi NNE 4.6 mph - 0.02 in Rain Light Rain
10:13 PM 33.8 °F - 33.8 °F 100% 29.78 in 5.0 mi Calm Calm - 0.01 in Rain Light Rain
10:33 PM 33.8 °F 27.7 °F 33.8 °F 100% 29.77 in 7.0 mi NE 6.9 mph - 0.01 in Rain Light Rain
10:52 PM 33.8 °F 27.7 °F 33.8 °F 100% 29.78 in 5.0 mi NE 6.9 mph - 0.02 in Rain Rain
11:13 PM 33.8 °F 30.8 °F 33.8 °F 100% 29.78 in 7.0 mi NNE 3.5 mph - N/A Rain Light Rain
11:33 PM 33.8 °F 28.6 °F 33.8 °F 100% 29.78 in 7.0 mi NNE 5.8 mph - N/A   Drizzle
11:52 PM 33.8 °F - 32.0 °F 93% 29.78 in 7.0 mi Calm Calm - N/A Rain Rain